LiveATC.Net - Listen to live air traffic control over the Internet!


ICAO: I68  IATA: I68   Airport: Warren County Airport/John Lane Field
City: Lebanon   State/Province: Ohio
Country: United States   Continent: North America
KI68 METAR Weather: KI68 161915Z AUTO 23007KT 10SM FEW110 30/25 A2989 RMK AO2
I68 ADS-B Flight Tracking  (ADSBExchange)
I68 Flight Activity (FlightAware)

I68 AWOS
Feed Status: UP   Listeners: 0
Listen in your browser - HTML5 player (in browser, HTML5)
Click here to listen with your own player (launches your MP3 player)
Archive Access: I68 AWOS
FacilityFrequency
Warren County AWOS120.550

I68 CTAF
Feed Status: UP   Listeners: 0
Listen in your browser - HTML5 player (in browser, HTML5)
Click here to listen with your own player (launches your MP3 player)
Archive Access: I68 CTAF
FacilityFrequency
I68 CTAF123.075

NOTICE

Unauthorized use prohibited. See LiveATC.net Terms of Service


Airport/ARTCC Code
Frequency Search
(e.g., 124.400, 128.75)
Site-wide search
 


Browse Feeds
Top 50 Feeds
HF Oceanic Feeds
Coverage Map
Bad Weather Areas

LiveATC FAQ

Increase Coverage

Contact LiveATC.net
Press Inquiries

LiveATC on iPhone
LiveATC on Android

LiveATC Mobile
(Mobile browser)

ATC Audio Archives
Interesting Recordings

LiveATC Forums


Home Page
About LiveATC.net


Terms of Use
Privacy Policy

AIRMETs/SIGMETs

FAA Airport Status
NAS Status
Arrival Demand


Server Software By:
Icecast.org
Liquidsoap